Weather in Sventoji

Lithuania     56°01′40″N   21°04′48″E
temp.,
°C
wind,
m/s
gust,
m/s
humid.,
%
clouds,
%
prec.,
mm/h
press.,
hPa
HPBL,
m
27 february, sat
sat2723:00+4nw711847 0.0 1018215
02:00+4nnw7128619 0.0 1020315
05:00+4nnw9158519 0.0 1021476
08:00+3nnw9148510 0.0 1024534
11:00+3nnw913820 0.0 1026571
14:00+4nnw913800 0.0 1028550
17:00+3nnw712840 0.0 1028480
20:00+3nnw58880 0.0 1030282
28 february, sun
sun2823:00+3nw478686 0.0 1029152
02:00+4wnw458287 0.0 102982
05:00+4wnw458038 0.0 102781
08:00+4wnw578461 0.0 1027136
11:00+4nw698658 0.0 1026232
14:00+5nw6118159 0.0 1027343
17:00+5nnw698243 0.0 1027303
20:00+4nnw598533 0.0 1029174
1 march, mon
mon123:00+4nnw69870 0.0 1029157
02:00+4nnw57870 0.0 1031101
05:00+4nw34840 0.0 103023
08:00+5w56810 0.0 103173
11:00+5w69830 0.0 1030171
14:00+5wsw712840 0.0 1028259
17:00+4w7128933 0.0 1027365
20:00+4wnw6108831 0.0 1028178
2 march, tue
tue223:00+4nw448518 0.0 102847
02:00+4nw23849 0.0 102922
05:00+4wsw33800 0.0 102822
08:00+4wnw34820 0.0 102822
11:00+5w34800 0.0 102998
14:00+5w45855 0.0 1029132
17:00+4w33860 0.0 102876
20:00+3w33870 0.0 102927
3 march, wed
wed323:00+3w22860 0.0 102922
02:00+3ssw128717 0.0 102922
05:00+3sw449253 0.0 1028101
08:00+1s559653 0.0 1028296
11:00+1s5694100 0.0 1027359
14:00+3s5693100 0.1 1026248
17:00+4ssw459183 0.0 1024141
20:00+3sw579042 0.0 1022129